Hourly Data Report for September 07, 2010

PETERBOROUGH AWOS
ONTARIO

44°14'00.000" N
78°22'00.000" W
191.40 m
6166420

Download Data

Hourly Data (September 2010)
Hourly Data Report for September 7, 2010
TIME
LST
Temp Definition
°C
Dew Point Definition
°C
Rel Hum Definition
%
Precip. Amount Definition
mm

Wind Dir Definition
10's deg

Wind Spd Definition
km/h
Visibility Definition
km
Stn Press Definition
kPa
Hmdx Definition


Wind Chill Definition


Weather Definition


00:00 16.5 14.8 90   LegendMM LegendMM 15.0 99.48     Rain
01:00 15.2 14.9 98   LegendMM LegendMM 8.0 99.40      
02:00 15.6 15.0 96   LegendMM LegendMM 15.0 99.34      
03:00 15.2 15.2 100   LegendMM LegendMM 6.4 99.31      
04:00 15.6 15.0 96   LegendMM LegendMM 15.0 99.24      
05:00 15.4 14.6 95   LegendMM LegendMM 15.0 99.22      
06:00 14.9 13.6 92   LegendMM LegendMM 15.0 99.18      
07:00 15.7 14.2 91   LegendMM LegendMM 15.0 99.14      
08:00 19.2 14.8 76   LegendMM LegendMM 15.0 99.08      
09:00 20.3 15.6 74   LegendMM LegendMM 15.0 99.01 25    
10:00 22.6 16.1 67   LegendMM LegendMM 15.0 98.96 27    
11:00 24.9 16.5 60   LegendMM LegendMM 15.0 98.89 30    
12:00 25.4 15.9 56   LegendMM LegendMM 15.0 98.83 30    
13:00 26.2 15.6 52   LegendMM LegendMM 15.0 98.73 31    
14:00 26.4 15.6 51   LegendMM LegendMM 15.0 98.63 31    
15:00 26.9 16.0 51   LegendMM LegendMM 15.0 98.53 32    
16:00 27.0 16.1 51   LegendMM LegendMM 15.0 98.49 32    
17:00 26.8 16.3 53   LegendMM LegendMM 15.0 98.44 32    
18:00 25.8 16.7 57   LegendMM LegendMM 15.0 98.38 31    
19:00 23.8 17.0 66   LegendMM LegendMM 15.0 98.25 29    
20:00 23.0 17.3 70   LegendMM LegendMM 15.0 98.28 28    
21:00 21.6 18.7 84   LegendMM LegendMM 15.0 98.36 28    
22:00 19.9 11.9 60   LegendMM LegendMM 15.0 98.44      
23:00 15.6 13.0 85   LegendMM LegendMM 15.0 98.44      

Notes on Data Quality.

Legend

  • E = Estimated
  • M = Missing
  • NA = Not Available*
  • [empty] = Indicates an unobserved value
Date modified: